{"data":{"norad_id":63674,"intl_designator":"2025-085L","name":"STARLINK-11656 [DTC]","alt_names":[],"object_type":"PAYLOAD","status":"ACTIVE","operator":null,"country":"US","launch_date":"2025-04-28","launch_site_code":"AFETR","launch_vehicle":null,"mission":null,"orbit_class":"UNKNOWN","rcs_meters":null,"size_class":null,"mass_kg":null,"dimensions":null,"purposes":["comms"],"wikipedia_slug":null,"has_3d_model":false,"image_url":null,"decayed_at":null,"tle_current":{"epoch":"2026-05-25T02:51:14.243040Z","epoch_age_seconds":55044,"freshness":"FRESH","line1":"1 63674U 25085L   26145.11891485  .00265622  00000+0  20005-2 0  9992","line2":"2 63674  42.9998 177.5915 0001505 266.5095  93.5600 15.70929865 62269","mean_motion":15.70929865,"eccentricity":0.0001505,"inclination_deg":42.9998,"raan_deg":177.5915,"arg_perigee_deg":266.5095,"mean_anomaly_deg":93.56,"bstar":0.0020005,"rev_number":6226,"period_min":91.665454459993,"perigee_km":355.22469935338,"apogee_km":357.25174629545,"semimajor_km":6734.3752228244,"source":"CELESTRAK","updated_at":"2026-05-25T13:38:20.092412Z"}}}